CGMXD CYHU-CYSC

Flight info

Callsign CGMXD
Flight time 0h 24m
Altitude 15000
Route VOBOK DCT PUXER
Aircraft PC12/L-SDFGRWY/S

Departure

Time 2026-05-08 19:56
Airport Montréal / Saint-Hubert Metropolitan Airport (CYHU)

Arrival

Time 2026-05-08 20:20
Airport Sherbrooke Airport (CYSC)
Time Latitude Longitude Altitude Speed Heading
2026-05-08 19:46 45.51271 -73.41137 96 ft 0 kts 134°
2026-05-08 19:52 45.51271 -73.41136 96 ft 0 kts 135°
2026-05-08 19:52 45.51270 -73.41134 96 ft 1 kts 120°
2026-05-08 19:52 45.51270 -73.41124 94 ft 0 kts 20°
2026-05-08 19:53 45.51298 -73.41158 94 ft 11 kts 302°
2026-05-08 19:53 45.51371 -73.41237 94 ft 16 kts 32°
2026-05-08 19:53 45.51475 -73.41085 94 ft 26 kts 48°
2026-05-08 19:54 45.51650 -73.40822 94 ft 35 kts 47°
2026-05-08 19:54 45.51829 -73.40546 94 ft 25 kts 47°
2026-05-08 19:54 45.51884 -73.40461 94 ft 13 kts 46°
2026-05-08 19:54 45.51911 -73.40435 94 ft 0 kts
2026-05-08 19:55 45.51940 -73.40457 94 ft 11 kts 315°
2026-05-08 19:55 45.51952 -73.40535 94 ft 1 kts 226°
2026-05-08 19:55 45.51948 -73.40541 93 ft 9 kts 229°
2026-05-08 19:56 45.51809 -73.40757 93 ft 53 kts 226°
2026-05-08 19:56 45.51467 -73.41269 156 ft 82 kts 230°
2026-05-08 19:56 45.51087 -73.41838 505 ft 75 kts 229°
2026-05-08 19:56 45.50851 -73.42251 768 ft 73 kts 231°
2026-05-08 19:57 45.50617 -73.42434 910 ft 84 kts 195°
2026-05-08 19:57 45.50019 -73.41912 1115 ft 123 kts 134°
2026-05-08 19:57 45.49570 -73.40826 1565 ft 128 kts 119°
2026-05-08 19:57 45.49229 -73.39625 2045 ft 136 kts 114°
2026-05-08 19:58 45.48874 -73.38307 2514 ft 146 kts 115°
2026-05-08 19:58 45.48494 -73.36959 3075 ft 149 kts 117°
2026-05-08 19:58 45.48094 -73.35589 3686 ft 149 kts 117°
2026-05-08 19:58 45.47691 -73.34229 4294 ft 150 kts 118°
2026-05-08 19:59 45.47279 -73.32857 4865 ft 151 kts 118°
2026-05-08 19:59 45.46866 -73.31485 5469 ft 150 kts 117°
2026-05-08 19:59 45.46447 -73.30097 5998 ft 155 kts 117°
2026-05-08 19:59 45.46026 -73.28705 6595 ft 154 kts 117°
2026-05-08 20:00 45.45603 -73.27306 7200 ft 152 kts 117°
2026-05-08 20:00 45.45184 -73.25917 7788 ft 153 kts 117°
2026-05-08 20:00 45.44759 -73.24513 8377 ft 154 kts 116°
2026-05-08 20:00 45.44329 -73.23098 8921 ft 158 kts 117°
2026-05-08 20:01 45.43894 -73.21665 9558 ft 157 kts 116°
2026-05-08 20:01 45.43457 -73.20225 10079 ft 160 kts 116°
2026-05-08 20:01 45.43012 -73.18759 10589 ft 163 kts 117°
2026-05-08 20:01 45.42558 -73.17266 11104 ft 165 kts 117°
2026-05-08 20:02 45.42107 -73.15780 11674 ft 163 kts 116°
2026-05-08 20:02 45.41653 -73.14283 12164 ft 167 kts 117°
2026-05-08 20:02 45.41285 -73.12718 12720 ft 167 kts 99°
2026-05-08 20:02 45.41187 -73.11064 13264 ft 170 kts 93°
2026-05-08 20:03 45.41117 -73.09373 13785 ft 172 kts 94°
2026-05-08 20:03 45.41044 -73.07661 14265 ft 174 kts 94°
2026-05-08 20:03 45.40967 -73.05937 14758 ft 175 kts 94°
2026-05-08 20:03 45.40884 -73.04126 14963 ft 197 kts 94°
2026-05-08 20:04 45.40783 -73.02052 14996 ft 222 kts 94°
2026-05-08 20:04 45.40669 -72.99768 15014 ft 240 kts 94°
2026-05-08 20:04 45.40550 -72.97327 15013 ft 254 kts 94°
2026-05-08 20:04 45.40427 -72.94767 15013 ft 264 kts 94°
2026-05-08 20:05 45.40303 -72.92118 15019 ft 271 kts 94°
2026-05-08 20:05 45.40175 -72.89410 15017 ft 277 kts 94°
2026-05-08 20:05 45.40045 -72.86663 15018 ft 280 kts 94°
2026-05-08 20:05 45.39904 -72.83891 15027 ft 282 kts 95°
2026-05-08 20:06 45.39684 -72.81142 15026 ft 284 kts 97°
2026-05-08 20:06 45.39420 -72.78313 15023 ft 285 kts 98°
2026-05-08 20:06 45.39159 -72.75551 15022 ft 286 kts 97°
2026-05-08 20:06 45.38900 -72.72742 15024 ft 287 kts 97°
2026-05-08 20:07 45.38644 -72.69930 15020 ft 287 kts 97°
2026-05-08 20:07 45.38390 -72.67112 15017 ft 287 kts 97°
2026-05-08 20:07 45.38135 -72.64294 15021 ft 287 kts 97°
2026-05-08 20:07 45.37881 -72.61469 15022 ft 288 kts 97°
2026-05-08 20:08 45.37626 -72.58649 15024 ft 288 kts 97°
2026-05-08 20:08 45.37370 -72.55817 15023 ft 288 kts 97°
2026-05-08 20:08 45.37113 -72.52988 15028 ft 288 kts 97°
2026-05-08 20:08 45.36857 -72.50168 15025 ft 289 kts 97°
2026-05-08 20:09 45.36598 -72.47331 15028 ft 289 kts 97°
2026-05-08 20:09 45.36339 -72.44501 15025 ft 288 kts 97°
2026-05-08 20:09 45.36080 -72.41678 15025 ft 288 kts 97°
2026-05-08 20:09 45.35820 -72.38851 15021 ft 288 kts 97°
2026-05-08 20:10 45.35558 -72.36030 15025 ft 288 kts 97°
2026-05-08 20:10 45.35297 -72.33219 15027 ft 287 kts 97°
2026-05-08 20:10 45.35120 -72.31308 15034 ft 287 kts 97°
2026-05-08 20:10 45.34773 -72.27580 15034 ft 288 kts 97°
2026-05-08 20:11 45.34598 -72.25703 14862 ft 292 kts 97°
2026-05-08 20:11 45.34327 -72.22831 14472 ft 295 kts 98°
2026-05-08 20:11 45.34055 -72.19955 14075 ft 293 kts 98°
2026-05-08 20:11 45.33785 -72.17106 13674 ft 290 kts 98°
2026-05-08 20:12 45.33516 -72.14268 13231 ft 290 kts 98°
2026-05-08 20:12 45.33248 -72.11433 12790 ft 288 kts 98°
2026-05-08 20:12 45.32983 -72.08635 12353 ft 283 kts 98°
2026-05-08 20:12 45.32721 -72.05880 11925 ft 280 kts 98°
2026-05-08 20:13 45.32460 -72.03133 11499 ft 280 kts 98°
2026-05-08 20:13 45.32198 -72.00387 11084 ft 280 kts 98°
2026-05-08 20:13 45.31936 -71.97647 10672 ft 279 kts 98°
2026-05-08 20:13 45.31675 -71.94930 10266 ft 277 kts 98°
2026-05-08 20:14 45.31416 -71.92230 9863 ft 275 kts 98°
2026-05-08 20:14 45.31158 -71.89536 9429 ft 274 kts 98°
2026-05-08 20:14 45.30902 -71.86866 8990 ft 271 kts 98°
2026-05-08 20:14 45.30647 -71.84234 8554 ft 268 kts 98°
2026-05-08 20:15 45.30519 -71.81617 8130 ft 265 kts 82°
2026-05-08 20:15 45.31264 -71.79289 7709 ft 258 kts 50°
2026-05-08 20:15 45.32427 -71.77387 7228 ft 249 kts 43°
2026-05-08 20:15 45.33619 -71.75639 6469 ft 245 kts 42°
2026-05-08 20:16 45.34820 -71.73943 5684 ft 242 kts 41°
2026-05-08 20:16 45.36011 -71.72278 4899 ft 239 kts 41°
2026-05-08 20:16 45.37201 -71.70626 4033 ft 240 kts 39°
2026-05-08 20:16 45.38449 -71.69000 3207 ft 238 kts 37°
2026-05-08 20:17 45.39146 -71.67162 3200 ft 209 kts 93°
2026-05-08 20:17 45.38668 -71.65364 3151 ft 180 kts 118°
2026-05-08 20:17 45.38418 -71.63719 2938 ft 170 kts 71°
2026-05-08 20:17 45.39081 -71.62477 2820 ft 150 kts 36°
2026-05-08 20:18 45.39924 -71.61852 2637 ft 124 kts 358°
2026-05-08 20:18 45.40696 -71.62004 2528 ft 105 kts 325°
2026-05-08 20:18 45.41227 -71.62514 2410 ft 87 kts 305°
2026-05-08 20:18 45.41569 -71.63230 2140 ft 89 kts 294°
2026-05-08 20:19 45.41872 -71.64016 1826 ft 88 kts 293°
2026-05-08 20:19 45.42167 -71.64784 1489 ft 88 kts 291°
2026-05-08 20:19 45.42474 -71.65572 1212 ft 94 kts 292°
2026-05-08 20:19 45.42792 -71.66386 1074 ft 94 kts 290°
2026-05-08 20:20 45.43101 -71.67199 965 ft 97 kts 291°
2026-05-08 20:20 45.43429 -71.68044 827 ft 97 kts 292°
2026-05-08 20:20 45.43714 -71.68776 792 ft 72 kts 291°
2026-05-08 20:20 45.43847 -71.69098 789 ft 20 kts 315°
2026-05-08 20:21 45.43958 -71.69036 797 ft 21 kts 27°
2026-05-08 20:21 45.44053 -71.68965 798 ft 11 kts 32°
2026-05-08 20:21 45.44105 -71.68920 798 ft 6 kts 10°
2026-05-08 20:21 45.44115 -71.68934 798 ft 0 kts 185°